Location: Aussinange
(45.2667°N, 2.2000°E)
Time: 16:35:47
(UTC+00:00)

Daily predictions for brighter satellites

Satellite Brightness Start Highest point End
(mag) Time Altitude Azimuth Time Altitude Azimuth Time Altitude Azimuth
MOS 1 4.4 19:41:32 10° SSE 19:47:07 66° ENE 19:52:44 10° N
SL-27 R/B 3.8 19:44:50 10° SSE 19:47:39 22° E 19:50:29 10° NE
Cosmos 2333 Rocket 3.7 19:46:52 10° N 19:51:22 24° NE 19:55:52 10° E
BREEZE-M DEB (TANK) 2.1 19:49:13 10° WNW 19:51:52 82° SSW 19:58:02 10° ESE
Cosmos 2322 Rocket 2.3 19:48:15 10° NNW 19:53:53 69° ENE 19:59:27 10° SE
IRS-1A Rocket 4.2 19:50:47 10° SSE 19:56:16 75° ENE 20:01:47 10° NNW
BREEZE-M R/B 4.4 19:54:09 10° SSW 19:58:51 20° SSE 20:01:42 10° E
Cosmos 923 Rocket 4.1 19:54:04 10° SSW 19:59:25 85° ESE 20:04:47 10° NNE
OBJECT-B 2.3 19:56:44 10° SSW 19:59:44 36° W 20:02:45 10° NNW
BREEZE-M DEB (TANK) 3.5 20:01:17 10° WNW 20:04:21 75° SSW 20:12:58 11° ESE
Cosmos 2219 Rocket 3.6 20:01:03 10° N 20:05:35 24° NE 20:10:05 10° ESE
SJ-6B 3.9 20:02:50 10° S 20:06:23 42° W 20:10:00 10° NNW
Resurs 1-3 3.7 20:02:24 10° SSE 20:06:48 84° WSW 20:11:13 10° NNW
Cosmos 2056 Rocket 3.8 20:05:31 10° NNW 20:10:46 56° ENE 20:15:29 12° SE
ATLAS 5 CENTAUR R/B 3.6 20:06:52 10° NNW 20:11:27 28° NE 20:16:43 10° E
USA 186 4.3 20:11:59 10° SW 20:13:46 16° W 20:15:28 10° NW
SPOT 1/Viking Rocket 4.0 20:14:27 12° SE 20:19:00 47° ENE 20:24:01 10° N
USA 245 4.3 20:16:53 14° SE 20:19:47 30° ENE 20:22:56 10° N
Cosmos 1092 Rocket 4.1 20:14:38 10° S 20:20:55 86° W 20:27:19 10° N
NOSS 2-1 (E) 2.8 20:18:08 10° SW 20:21:25 88° NW 20:24:49 10° NE
Cosmos 2026 Rocket 4.0 20:18:17 10° S 20:24:35 82° E 20:30:50 10° N
CZ-2C R/B 4.2 20:22:45 10° NNE 20:26:55 37° E 20:30:27 13° SSE
SL-16 R/B 2.9 20:21:51 10° NW 20:27:21 52° WSW 20:32:48 10° S
IGS 5A 3.4 20:23:19 10° SSE 20:27:27 86° WSW 20:31:38 10° NNW
GP-B 3.2 20:25:21 10° N 20:29:44 58° E 20:33:39 13° SSE
CARTOSAT-1 4.4 20:29:08 18° SE 20:31:45 34° ENE 20:35:41 10° N
Cosmos 1680 Rocket 3.9 20:26:39 10° SSW 20:31:53 68° WNW 20:37:08 10° NNE
Cosmos 1151 Rocket 3.0 20:27:48 10° N 20:32:12 83° E 20:36:06 13° S
Cosmos 1371 Rocket 4.1 20:27:41 10° NNW 20:33:05 86° WSW 20:37:42 14° SSE
Cosmos 2112 Rocket 4.2 20:28:25 10° SSW 20:33:42 76° WNW 20:38:59 10° NNE
Lacrosse 5 3.1 20:33:37 18° SE 20:33:51 18° ESE 20:37:18 10° ENE
NOSS 3-1 (C) 4.2 20:26:38 10° NW 20:34:03 69° NE 20:40:55 18° SE
Cosmos 1271 Rocket 4.0 20:32:23 10° NNW 20:36:10 41° W 20:39:55 10° SSW
Okean 3 Rocket 3.5 20:31:53 10° S 20:36:22 79° E 20:40:56 10° N
Cosmos 2333 4.5 20:32:34 10° NNW 20:38:05 54° ENE 20:41:51 20° SE
MetOp-B 4.1 20:36:35 14° SSE 20:41:13 82° ENE 20:46:36 10° NNW
ERS-2 2.7 20:38:19 10° N 20:41:55 58° WNW 20:45:29 10° SSW
Meteor 1-10 Rocket 4.4 20:37:44 10° N 20:43:10 52° ENE 20:46:47 21° SE
COSMOS 2487 3.2 20:45:40 29° ESE 20:46:07 30° ESE 20:49:07 10° NE
Cosmos 1515 Rocket 3.8 20:45:09 10° N 20:49:29 53° ENE 20:51:44 26° SE
COSMOS 2428 3.4 20:45:12 10° NNW 20:50:35 41° NE 20:53:52 21° ESE
GEOS 3 Rocket 4.4 20:45:33 10° NNE 20:50:38 54° NW 20:55:36 10° WSW
COSMOS 2455 2.9 20:46:12 10° SSW 20:52:05 59° ESE 20:58:00 10° NE
USA 229 DEB 4.2 20:45:01 10° NNW 20:52:12 58° NE 20:57:36 20° ESE
USA 229 4.2 20:45:07 10° NNW 20:52:18 57° NE 20:57:42 20° ESE
Terra 2.8 20:54:30 23° ESE 20:56:34 32° ENE 21:00:47 10° N
Cosmos 292 Rocket 3.7 20:52:23 10° NNW 20:57:11 89° ENE 20:59:58 25° SSE
Ariane Rocket 4.4 20:52:47 10° SSW 20:57:22 34° W 21:01:58 10° NNW
Cosmos 1328 Rocket 3.8 20:54:06 10° NNW 20:58:32 69° W 21:01:43 18° S
Cosmos 2360 Rocket 2.5 20:55:06 10° NNW 21:00:40 62° WSW 21:04:36 19° S
Cosmos 1048 Rocket 4.5 20:59:48 26° SSE 21:01:52 37° ESE 21:06:34 10° NE
Cosmos 1766 Rocket 4.4 20:58:45 10° SSW 21:03:00 51° WNW 21:07:15 10° N
SPOT 3 Rocket 4.1 20:59:52 13° S 21:04:22 55° W 21:09:31 10° NNW
Cosmos 972 Rocket 4.2 21:01:59 24° SSE 21:04:46 46° ESE 21:09:29 10° NNE
Cosmos 1174 3.8 21:03:15 10° NW 21:06:09 46° WSW 21:06:57 35° SSW
Resurs 01 Rocket 3.1 21:05:25 10° SSW 21:09:27 33° W 21:13:30 10° NNW
Meteor 2-6 Rocket 4.4 21:07:24 10° NNW 21:12:46 67° W 21:16:31 20° S
NOSS 3-1 (A) 4.2 21:05:25 10° NW 21:12:54 73° NE 21:18:16 26° SE
Cosmos 2266 Rocket 4.0 21:09:42 23° SSE 21:13:39 62° E 21:19:50 10° NNE
Cosmos 1420 Rocket 4.4 21:10:49 10° NNW 21:16:05 62° WSW 21:19:08 25° S
Cosmos 1812 3.7 21:13:10 10° NNW 21:16:50 42° W 21:19:06 20° SSW
Cosmos 1553 Rocket 4.3 21:11:50 10° NNW 21:17:51 64° W 21:22:38 17° S
Cosmos 1862 4.0 21:16:10 13° SSW 21:19:32 51° WNW 21:23:25 10° N
Gblst 52 Del rocket 4.4 21:15:10 10° WNW 21:21:11 87° NNE 21:24:54 28° ESE
Meteor 2-21 Rocket 4.5 21:16:32 13° S 21:22:13 83° W 21:28:25 10° N
ERS-1 Rocket 2.9 21:20:14 34° SSE 21:22:25 78° ENE 21:27:28 10° N
Cosmos 2228 Rocket 3.4 21:21:33 10° N 21:25:54 52° ENE 21:26:53 43° ESE
Cosmos 2285 Rocket 4.0 21:23:54 10° NNW 21:30:14 76° ENE 21:33:03 35° SSE
Cosmos 2297 Rocket 3.5 21:31:26 22° E 21:31:26 22° E 21:35:09 10° NE
Cosmos 1805 Rocket 3.8 21:31:35 46° ESE 21:32:09 49° E 21:36:26 10° NNE
SPOT 5 2.6 21:31:58 43° S 21:33:22 83° WSW 21:37:54 10° NNW
ARIANE 5 R/B 2.8 21:31:52 37° S 21:33:32 68° WSW 21:37:57 10° NNW
BREEZE-M DEB (TANK) 2.4 21:28:06 10° WNW 21:33:57 66° NNE 21:34:36 49° ENE
Cosmos 2315 Rocket 4.1 21:28:37 10° N 21:34:57 66° E 21:37:37 36° SSE
NOSS 0 Rocket 4.3 21:29:12 10° NNW 21:35:18 54° ENE 21:37:53 33° ESE
Cosmos 2333 Rocket 2.4 21:30:32 10° NNW 21:36:09 66° WSW 21:38:33 34° S
Cosmos 883 Rocket 4.4 21:30:08 10° N 21:36:26 79° E 21:39:17 35° SSE
Cosmos 2322 Rocket 4.3 21:33:33 10° WNW 21:37:18 19° W 21:41:02 10° SW
Cosmos 2237 Rocket 3.2 21:33:10 10° NNW 21:38:24 36° NE 21:40:34 27° E
Cosmos 2322 3.9 21:33:26 10° NNW 21:39:08 66° WSW 21:41:30 35° S
Meteor 1-20 Rocket 4.4 21:40:22 41° SE 21:41:52 52° E 21:47:25 10° NNE
Cosmos 1500 Rocket 3.7 21:40:12 35° SSW 21:42:00 73° W 21:46:28 10° N
Cosmos 1452 Rocket 3.6 21:37:24 10° NNW 21:42:39 71° WSW 21:44:29 41° S
Cosmos 2227 Rocket 3.7 21:44:50 20° E 21:44:50 20° E 21:48:02 10° NE
Cosmos 2219 Rocket 2.4 21:44:27 10° NNW 21:49:59 62° WSW 21:51:54 39° S
Sich 1 2.9 21:53:27 64° ESE 21:53:36 65° E 21:57:53 10° NNE
ATLAS 5 CENTAUR R/B 2.3 21:50:56 10° NW 21:56:34 76° SW 21:58:38 45° SSE
Cosmos 1515 4.0 21:54:06 10° N 21:57:27 53° NE 21:57:27 53° NE
Cosmos 1331 Rocket 3.9 21:53:17 10° NNW 21:58:33 77° ENE 21:59:36 56° SE
Meteor 1-27 Rocket 4.1 21:53:25 10° NNW 21:59:02 61° W 22:01:24 35° SSW
Cosmos 1110 Rocket 3.9 21:54:38 10° NNW 21:59:59 86° ENE 22:01:08 56° SSE
Cosmos 1633 Rocket 3.7 22:10:51 42° ENE 22:10:51 42° ENE 22:14:23 10° NNE
SL-16 R/B 3.8 22:06:03 10° N 22:10:44 26° NE 22:12:56 20° E
Cosmos 494 Rocket 4.2 22:11:18 34° SW 22:13:26 67° WNW 22:18:35 10° NNE
Lacrosse 5 1.8 22:12:21 17° SW 22:16:15 86° NW 22:21:21 10° NE
Cosmos 1666 Rocket 3.6 22:21:09 70° ENE 22:21:09 70° ENE 22:25:19 10° NNE
Cosmos 1602 4.1 22:22:55 61° NNW 22:22:55 61° NNW 22:26:15 10° N
SL-08 ROCKET BODY 4.4 22:21:32 55° SE 22:22:39 65° E 22:28:46 10° NNE
Nadezhda 2 Rocket 4.5 22:23:48 50° S 22:25:40 88° E 22:32:08 10° N
Cosmos 1244 Rocket 4.4 22:30:48 54° S 22:32:22 89° W 22:38:38 10° N
Terra 3.1 22:33:24 29° WSW 22:34:17 31° W 22:38:31 10° NNW
COSMOS 2428 3.7 22:29:41 10° NW 22:34:45 34° WSW 22:35:52 31° SW
Meteor 1-25 Rocket 4.5 22:33:39 43° SW 22:35:16 62° WNW 22:40:48 10° N
CZ-4C R/B 3.9 22:29:22 10° NNW 22:35:56 41° NE 22:41:11 19° E
COBE Rocket 3.7 22:36:50 81° ENE 22:36:50 81° ENE 22:41:33 10° N
Timation 2 Rocket 4.3 22:39:27 44° E 22:39:27 44° E 22:44:55 10° NE
Cosmos 2084 Rocket 4.4 22:35:43 10° NW 22:38:56 39° W 22:38:56 39° W
Meteor 2-4 Rocket 3.8 22:34:10 10° N 22:40:04 67° ENE 22:40:46 61° ESE
CZ-3B R/B 2.2 22:32:28 10° NW 22:39:48 78° WNW 22:39:48 78° WNW
Meteor 2-9 4.5 22:43:18 74° SE 22:43:34 76° E 22:49:04 10° NNE
Cosmos 1862 Rocket 3.8 22:41:34 10° N 22:45:19 66° N 22:45:19 66° N
Cosmos 2219 3.1 22:48:17 73° SE 22:48:34 75° ESE 22:54:19 10° NNE
Meteor 1-18 Rocket 4.2 22:42:49 10° NNW 22:48:37 74° W 22:49:18 65° SSW
USA 267 3.6 22:42:39 10° ENE 22:48:10 45° ESE 22:48:10 45° ESE
Meteor 1-5 Rocket 4.3 22:49:36 63° ESE 22:49:55 64° E 22:55:48 10° NNE
Spot 4 3.8 22:52:09 82° NNE 22:52:09 82° NNE 22:56:51 10° NNW
Okean 1 4.4 22:49:52 10° NNW 22:52:58 39° WNW 22:52:58 39° WNW
Cosmos 1707 Rocket 4.5 22:49:55 10° NNW 22:53:48 40° W 22:53:48 40° W
Cosmos 1302 Rocket 4.0 22:52:21 10° NNW 22:57:32 66° WSW 22:57:32 66° WSW
Cosmos 1500 4.4 22:59:15 40° NW 22:59:15 40° NW 23:02:09 10° N
Cosmos 2082 4.3 23:01:12 42° E 23:01:12 42° E 23:05:53 10° NE
Cosmos 1980 4.0 22:55:43 10° NW 23:01:12 53° WSW 23:01:24 53° WSW
SL-08 R/B 4.5 23:00:49 58° SW 23:02:00 73° W 23:08:10 10° N
Cosmos 1703 Rocket 4.5 22:57:52 10° N 23:01:20 41° NE 23:01:20 41° NE
Cosmos 909 Rocket 4.1 23:02:47 62° S 23:03:53 73° ESE 23:11:35 10° NE
Meteor 1-11 Rocket 4.3 23:05:19 41° E 23:05:19 41° E 23:10:10 10° NNE
Okean 1-7 3.9 23:06:19 10° N 23:09:33 44° NNE 23:09:33 44° NNE
Cosmos 1269 Rocket 4.3 23:10:35 55° W 23:11:13 60° WNW 23:16:28 10° NNE
Cosmos 2297 Rocket 2.6 23:13:12 48° WSW 23:14:28 59° WNW 23:20:05 10° NNE
Meteor 2-17 Rocket 4.2 23:15:38 76° SSE 23:16:05 84° E 23:22:10 10° N
ALOS 2 3.1 23:23:09 56° NNW 23:23:09 56° NNW 23:26:40 10° NNW
Cosmos 2237 Rocket 3.0 23:17:15 10° NW 23:22:23 38° WSW 23:22:23 38° WSW
USA 234 3.8 23:18:04 18° E 23:22:52 54° NNE 23:29:12 10° NW
Cosmos 1461 4.3 23:27:19 34° NE 23:27:19 34° NE 23:29:54 10° NE
Cosmos 1709 Rocket 3.9 23:26:19 70° SE 23:26:52 74° E 23:33:15 10° NNE
Cosmos 2227 Rocket 2.5 23:26:37 55° W 23:27:27 62° WNW 23:33:05 10° NNE
Meteor 1-13 Rocket 4.1 23:23:00 10° N 23:28:45 79° E 23:28:50 79° E
Cosmos 2263 Rocket 3.5 23:33:28 28° E 23:33:28 28° E 23:37:25 10° NE
Cosmos 2344 4.4 23:34:40 30° ESE 23:34:40 30° ESE 23:40:54 10° NE
Cosmos 1745 Rocket 4.3 23:35:14 52° WSW 23:36:17 58° WNW 23:42:33 10° N
Cosmos 1536 4.2 23:40:44 38° NNE 23:40:44 38° NNE 23:43:18 10° NNE
ATLAS 5 CENTAUR R/B 4.4 23:37:24 10° WNW 23:40:09 15° WSW 23:40:09 15° WSW
Cosmos 1241 Rocket 4.5 23:44:34 65° SW 23:45:38 82° NW 23:52:11 10° NNE
Cosmos 1869 Rocket 4.3 23:47:06 50° NNE 23:47:06 50° NNE 23:50:28 10° NNE
Okean 3 4.4 23:42:41 10° N 23:45:46 46° N 23:45:46 46° N
Cosmos 44 3.6 23:46:39 10° NNW 23:51:25 70° N 23:51:25 70° N
Thor Agena Rocket 3.8 23:48:11 10° NNE 23:52:34 56° ENE 23:52:34 56° ENE
